Regional Weather Roundup
Issued by NWS Little Rock, AR

Home | Current Version | Previous Version | Graphics & Text | Print | Product List | Glossary On
Versions: 1 2 3 4 5 6 7 8 9 10 11 12 13 14 15 16 17 18 19 20 21 22 23 24 25 26 27 28 29 30 31 32
000
ASUS44 KLZK 202005
RWRLZK

WEATHER ROUNDUP FOR ARKANSAS
NATIONAL WEATHER SERVICE LITTLE ROCK AR
300 PM CDT FRI APR 20 2018

NOTE: "FAIR" INDICATES FEW OR NO CLOUDS BELOW 12,000 FEET WITH NO
SIGNIFICANT WEATHER AND/OR OBSTRUCTIONS TO VISIBILITY.

ARZ001-003-010-029-202100-
NORTHWEST ARKANSAS

CITY           SKY/WX    TMP DP  RH WIND       PRES   REMARKS
FAYETTEVILLE   SUNNY     66  22  18 SE6       30.27F
FORT SMITH     CLOUDY    66  33  29 MISG      30.27F
HARRISON       SUNNY     63  29  27 SE13G20   30.30F
BENTONVILLE    SUNNY     64  30  27 S10       30.29F
ROGERS         CLOUDY    64  29  26 E9        30.28F
SILOAM SPGS    SUNNY     65  29  25 VRB3      30.27F
HIGHFILL       SUNNY     65  33  30 SE8       30.27F
SPRINGDALE     SUNNY     64  34  32 E6G16     30.29F
$$

ARZ004-005-016-202100-
NORTH CENTRAL ARKANSAS

CITY           SKY/WX    TMP DP  RH WIND       PRES   REMARKS
BATESVILLE     SUNNY     66  20  17 E10G21    30.33F
FLIPPIN        SUNNY     65  25  22 SE9       30.31F
MTN HOME       SUNNY     64  25  22 S10       30.31F
$$

ARZ040-041-202100-
WEST CENTRAL ARKANSAS

CITY           SKY/WX    TMP DP  RH WIND       PRES   REMARKS
MENA           SUNNY     68  34  28 E13       30.26F
MOUNT IDA      SUNNY     64  36  35 VRB5      30.25F
$$

ARZ009-017-025-026-028-202100-
NORTHEAST ARKANSAS

CITY           SKY/WX    TMP DP  RH WIND       PRES   REMARKS
CORNING        FAIR      64  27  24 E9G16     30.37F
JONESBORO      FAIR      65  33  30 E15       30.34F
NEWPORT        FAIR      64  23  21 NE9G21    30.34F
WALNUT RIDGE   FAIR      65  24  21 E13G18    30.35F
BLYTHEVILLE    FAIR      66  30  26 E10G18    30.35F
NW BLYTHEVILLE SUNNY     64  28  25 E9G22     30.35F
$$

ARZ022-023-033-042-044-202100-
CENTRAL ARKANSAS

CITY           SKY/WX    TMP DP  RH WIND       PRES   REMARKS
LITTLE ROCK    MOSUNNY   65  33  30 E16       30.31F
N LITTLE ROCK    N/A     64  39  39 E8        30.29F
JACKSONVILLE   SUNNY     66  34  30 E13       30.30F
CONWAY           N/A     66  32  28 VRB7G17   30.30
SEARCY         FAIR      66  33  29 NE13G18   30.32F
HOT SPRINGS    SUNNY     66  32  28 SE14G21   30.28F
RUSSELLVILLE   SUNNY     65  30  27 E10G18    30.29F
CLINTON        FAIR      64  30  27 VRB6      30.31F
$$

ARZ036-202100-
EAST ARKANSAS

CITY           SKY/WX    TMP DP  RH WIND       PRES   REMARKS
WEST MEMPHIS   FAIR      68  34  28 E8        30.30F
$$

ARZ050-053-066-070-073-202100-
SOUTHWEST ARKANSAS

CITY           SKY/WX    TMP DP  RH WIND       PRES   REMARKS
ARKADELPHIA    FAIR      66  38  35 E10G16    30.28F
CAMDEN         FAIR      70  30  23 NE8       30.27F
TEXARKANA      SUNNY     65  39  38 E8        30.25F
EL DORADO        N/A     67  36  31 NE9G21    30.27F
DE QUEEN       SUNNY     65  38  36 E15       30.24F
$$

ARZ056-057-069-202100-
SOUTHEAST ARKANSAS

CITY           SKY/WX    TMP DP  RH WIND       PRES   REMARKS
PINE BLUFF     FAIR      66  33  29 NE10      30.31F
STUTTGART      FAIR      66  33  29 E15       30.31F
MONTICELLO     FAIR      66  34  30 E13G20    30.28F

$$






USA.gov is the U.S. government's official web portal to all federal, state and local government web resources and services.